Temp
79 79 78 78 78 77 75 75 74 73 76 82 86 86 85 85 85 83 84 85 83 82 83 84 81 83 86 86 86 85 84 83 79 77 74 68 63 60 58 58 59 58 55
78 77 77 78 78 76 75 76 76 72 70 73 77 85 87 87 85 84 83 87 83 82 83 83 83 84 81 83 85 82 83 83 80 74 71 68 63 59 58 56 56 57 56
77 77 76 75 74 72 73 75 76 76 75 69 70 75 79 87 86 85 85 85 86 84 83 82 83 81 79 82 81 81 82 81 80 78 72 72 64 58 56 56 55 56 57
76 75 73 73 73 74 74 71 72 74 76 74 71 70 72 71 80 84 86 83 84 86 84 83 83 74 74 76 76 79 80 81 79 79 75 74 70 61 60 54 52 55 55
73 72 72 73 74 74 73 74 74 73 73 74 74 69 67 72 76 74 68 79 79 80 81 70 65 64 63 62 60 67 77 78 80 78 78 76 73 63 60 60 58 55 54
72 71 72 72 73 72 72 72 72 73 73 71 69 74 73 73 56 56 60 72 76 75 74 65 65 63 63 61 59 59 59 71 75 79 79 78 71 72 73 67 60 53 51
70 71 72 71 70 71 72 71 71 70 71 71 70 71 71 73 55 52 53 68 72 72 69 69 61 66 63 65 59 59 62 60 63 75 75 77 76 76 76 69 64 59 61
70 70 72 71 70 71 70 68 68 69 69 69 70 71 70 72 51 49 51 67 71 73 69 68 69 64 65 66 65 65 66 69 72 77 77 78 78 79 76 73 70 59 57
69 70 71 71 70 69 68 67 67 66 66 67 70 70 70 71 51 48 54 70 70 71 68 70 66 70 61 54 66 63 63 66 67 56 54 51 51 51 61 75 66 61 56
65 66 66 66 64 62 64 66 66 65 65 67 68 70 67 70 56 47 53 70 68 70 71 68 57 65 52 50 63 62 63 66 70 69 66 61 59 62 54 72 74 68 67
62 62 62 62 61 61 60 61 61 63 64 64 64 67 67 68 69 46 46 66 69 67 68 67 65 50 49 48 52 66 64 68 67 72 72 74 73 73 73 72 74 74 72
54 55 56 56 57 59 58 58 59 58 56 58 61 64 68 68 60 52 45 47 57 65 64 68 66 47 47 46 50 54 48 56 67 69 70 73 75 74 74 74 73 74 76
50 50 51 51 52 52 51 51 51 53 53 56 60 63 66 70 67 49 45 44 47 55 63 57 50 45 45 47 48 47 47 58 64 65 66 74 73 71 70 72 73 64 66
46 47 48 47 49 49 51 49 48 49 49 50 55 58 62 66 63 65 65 59 48 53 52 54 53 52 50 51 54 52 57 56 62 64 69 76 72 69 70 74 68 59 56
45 45 45 46 46 47 49 48 49 50 50 49 51 57 56 55 59 48 46 65 65 56 52 53 54 57 56 53 54 57 56 58 59 65 68 73 67 69 71 70 70 63 56
42 43 43 43 44 45 46 47 45 43 43 42 42 44 55 48 45 46 44 43 45 44 52 50 52 51 53 59 59 52 54 55 59 62 63 70 69 69 68 67 70 65 61
40 40 40 40 40 43 42 43 42 48 43 42 41 41 42 43 41 42 45 43 42 43 58 56 52 52 57 53 55 55 54 54 56 59 60 61 68 69 64 68 63 65 65
38 38 38 39 39 40 40 42 43 43 43 48 43 42 42 41 40 40 40 41 50 50 58 59 59 56 54 59 60 59 58 56 58 58 59 62 64 73 72 72 72 68 65
37 37 37 37 37 38 38 38 40 41 43 44 47 45 43 39 40 40 39 51 53 55 57 60 62 62 60 62 65 67 62 59 58 62 62 63 67 72 75 76 74 57 59
37 37 36 36 36 36 37 38 39 39 40 42 44 45 48 43 46 47 49 51 53 57 59 61 64 65 64 67 66 68 67 66 62 61 66 67 65 71 74 75 76 73 68
36 36 34 34 35 36 36 36 37 38 38 41 44 46 39 44 46 47 48 50 53 55 56 57 59 63 66 68 70 71 71 69 67 68 70 72 72 72 73 74 75 74 70
35 36 36 36 36 36 36 37 36 36 37 38 41 44 36 42 43 44 46 49 52 54 56 55 56 58 62 67 69 70 71 70 71 71 70 72 72 73 74 74 75 75 72
35 35 35 36 36 35 36 37 36 36 36 36 37 38 40 42 43 46 47 48 49 50 53 55 54 56 58 61 63 65 68 68 69 72 72 72 72 72 72 72 73 75 75
36 36 36 36 36 36 36 36 36 35 36 36 38 38 38 39 41 43 46 49 51 52 52 52 52 54 56 58 60 61 64 66 67 69 70 71 70 68 72 74 74 75 75
36 36 36 35 35 35 36 36 36 37 37 37 36 38 39 39 39 41 42 44 46 49 51 51 52 53 54 57 59 61 54 42 58 52 61 66 65 67 71 70 72 75 74
37 36 35 35 34 35 34 35 35 36 36 37 37 37 37 39 40 40 41 42 44 45 47 49 52 53 55 58 58 51 41 40 50 40 61 60 60 63 67 68 70 71 70
MSLP
1012.22 1011.98 1011.94 1012.04 1011.75 1011.61 1011.47 1011.08 1010.91 1010.58 1009.77 1008.67 1007.75 1008.40 1009.10 1009.32 1009.63 1010.10 1010.04 1010.17 1010.91 1011.38 1011.71 1011.89 1012.44 1012.59 1012.46 1012.89 1013.23 1013.40 1013.56 1013.92 1014.05 1015.15 1016.63 1017.99 1018.71 1019.46 1020.10 1020.40 1020.63 1021.04 1021.50
1012.67 1012.41 1012.11 1011.91 1011.82 1011.75 1011.64 1011.30 1010.93 1010.68 1010.22 1010.06 1009.20 1007.88 1008.42 1008.73 1008.78 1009.09 1009.54 1009.36 1009.93 1010.59 1011.07 1011.35 1011.84 1012.50 1012.72 1012.78 1012.96 1013.24 1013.48 1013.69 1014.17 1014.84 1016.73 1017.68 1018.61 1019.50 1019.96 1020.41 1020.84 1021.19 1021.43
1012.92 1012.64 1012.39 1012.36 1012.27 1012.31 1012.04 1011.54 1011.12 1010.60 1010.33 1010.33 1009.91 1009.11 1007.93 1007.52 1008.01 1008.52 1008.41 1008.97 1008.85 1009.49 1010.07 1010.75 1011.28 1011.93 1012.39 1012.68 1012.91 1013.03 1013.58 1014.21 1014.29 1014.74 1015.89 1017.11 1018.64 1019.57 1020.08 1020.47 1020.76 1021.17 1021.51
1013.00 1012.78 1012.64 1012.54 1012.46 1012.24 1011.88 1011.88 1011.59 1011.14 1010.62 1010.49 1010.44 1010.17 1009.19 1008.81 1007.33 1007.03 1007.60 1008.04 1008.39 1008.52 1009.30 1009.98 1010.79 1012.44 1013.29 1013.77 1013.56 1013.26 1013.01 1013.53 1014.45 1014.38 1015.01 1016.20 1017.57 1019.00 1019.48 1019.99 1020.37 1020.84 1021.37
1013.04 1012.85 1012.68 1012.42 1012.24 1011.99 1011.81 1011.52 1011.41 1011.22 1010.72 1010.41 1010.09 1009.83 1009.60 1008.78 1008.42 1007.89 1007.96 1005.87 1007.49 1008.35 1008.66 1010.30 1011.23 1012.39 1013.00 1014.29 1016.53 1016.33 1013.87 1013.64 1013.98 1014.30 1014.35 1014.64 1016.04 1017.68 1018.45 1019.04 1019.47 1020.03 1020.82
1012.81 1012.62 1012.41 1012.30 1011.99 1011.66 1011.54 1011.34 1011.22 1010.97 1010.78 1010.65 1010.27 1009.78 1009.59 1009.33 1009.33 1009.19 1009.48 1009.13 1008.42 1008.40 1009.16 1010.58 1011.20 1011.38 1011.38 1012.28 1016.01 1016.27 1015.25 1014.74 1014.15 1013.75 1013.68 1013.66 1014.83 1015.74 1016.46 1017.63 1018.65 1019.46 1020.24
1012.39 1012.15 1011.97 1011.84 1011.66 1011.47 1011.26 1011.01 1010.79 1010.69 1010.72 1010.47 1010.31 1009.93 1009.57 1009.33 1009.62 1009.90 1010.18 1010.11 1009.45 1009.14 1009.78 1010.43 1011.13 1011.40 1012.34 1012.55 1012.78 1015.02 1015.04 1015.06 1014.57 1014.13 1013.84 1013.75 1014.14 1014.52 1015.19 1016.54 1017.64 1018.26 1018.63
1011.90 1011.66 1011.43 1011.30 1011.16 1011.01 1010.97 1010.96 1010.86 1010.71 1010.43 1010.20 1009.76 1009.44 1009.57 1009.30 1009.38 1009.73 1010.05 1010.28 1009.63 1009.02 1009.30 1009.50 1010.03 1010.62 1010.90 1012.00 1011.88 1012.26 1014.15 1014.86 1014.40 1014.57 1013.96 1014.09 1014.42 1014.46 1014.97 1015.52 1016.28 1017.89 1018.82
1011.47 1011.13 1010.93 1010.65 1010.42 1010.41 1010.47 1010.56 1010.72 1010.79 1010.57 1010.08 1009.50 1009.09 1008.91 1008.75 1009.18 1009.45 1009.59 1009.24 1008.86 1008.53 1008.93 1008.88 1009.16 1009.81 1009.98 1010.93 1011.27 1011.82 1012.34 1013.60 1013.69 1014.41 1014.42 1014.67 1014.79 1015.27 1015.09 1015.13 1016.42 1017.04 1018.05
1012.02 1011.60 1011.55 1011.40 1011.18 1010.95 1010.52 1010.17 1010.11 1010.31 1010.20 1009.95 1009.29 1008.71 1008.18 1008.21 1008.17 1008.74 1009.25 1008.70 1008.08 1008.06 1007.71 1008.16 1008.37 1008.85 1009.07 1009.81 1010.59 1010.96 1011.78 1012.59 1013.27 1013.70 1014.71 1014.88 1014.73 1015.19 1015.42 1014.68 1014.79 1015.39 1016.04
1012.69 1012.33 1011.97 1011.83 1011.50 1011.13 1010.88 1010.49 1010.24 1009.93 1009.63 1009.40 1009.03 1008.38 1007.96 1007.57 1007.40 1007.96 1008.38 1008.42 1007.73 1007.46 1007.33 1007.39 1007.70 1007.88 1008.79 1009.11 1010.26 1010.09 1010.04 1010.82 1011.86 1012.30 1013.17 1013.60 1013.98 1014.53 1014.75 1014.65 1014.32 1014.21 1014.73
1013.57 1012.97 1012.52 1012.24 1011.92 1011.30 1010.83 1010.50 1010.15 1009.94 1009.67 1009.21 1008.46 1007.84 1007.17 1006.86 1007.05 1007.06 1007.63 1008.02 1007.62 1007.47 1007.18 1006.90 1007.15 1007.56 1008.11 1008.84 1009.53 1009.87 1010.24 1011.04 1011.37 1011.53 1011.90 1012.29 1012.70 1013.02 1013.33 1013.59 1014.06 1014.27 1014.42
1013.88 1013.29 1012.77 1012.38 1012.03 1011.59 1011.25 1010.57 1010.30 1010.15 1009.74 1009.09 1008.12 1006.92 1005.91 1005.49 1005.73 1006.25 1006.63 1007.37 1007.84 1007.84 1007.18 1006.94 1007.39 1007.91 1008.34 1008.22 1008.56 1009.03 1009.93 1011.27 1010.62 1010.70 1010.82 1010.93 1011.55 1011.98 1012.30 1012.81 1013.51 1015.62 1016.11
1013.82 1013.23 1012.78 1012.26 1011.71 1011.14 1010.69 1010.23 1010.03 1009.55 1009.16 1008.98 1008.12 1007.13 1005.99 1005.39 1005.13 1004.80 1005.29 1006.38 1007.33 1007.67 1007.58 1007.59 1007.54 1007.99 1007.80 1008.15 1007.98 1008.63 1009.11 1009.79 1010.15 1009.55 1009.44 1009.75 1010.55 1010.92 1011.54 1012.05 1013.57 1015.75 1016.59
1013.42 1012.85 1012.27 1011.79 1011.26 1010.57 1010.02 1009.62 1009.21 1008.83 1008.60 1008.32 1007.86 1007.21 1006.27 1006.43 1006.02 1006.70 1006.58 1005.09 1005.42 1006.77 1007.60 1007.84 1007.64 1007.58 1007.98 1008.02 1008.42 1008.79 1009.04 1008.99 1008.98 1008.96 1008.75 1009.03 1009.86 1010.40 1010.82 1011.90 1013.01 1014.62 1015.84
1013.17 1012.58 1011.96 1011.38 1010.74 1010.16 1009.44 1008.65 1008.42 1008.20 1008.06 1007.96 1007.87 1007.85 1006.89 1006.74 1007.02 1007.02 1006.53 1006.34 1005.73 1006.54 1007.18 1007.38 1007.49 1007.71 1007.83 1007.73 1007.91 1008.71 1009.04 1009.41 1009.42 1009.25 1009.01 1008.95 1009.27 1010.00 1010.54 1011.66 1012.34 1013.67 1014.76
1013.04 1012.44 1011.83 1011.21 1010.48 1009.62 1009.03 1008.37 1007.55 1006.86 1006.79 1006.83 1006.83 1006.90 1006.82 1006.83 1007.10 1007.35 1007.51 1007.40 1007.12 1006.95 1006.41 1006.55 1006.87 1006.92 1006.93 1007.34 1007.86 1008.24 1008.62 1008.88 1009.28 1009.54 1009.09 1009.13 1008.64 1009.10 1009.79 1010.98 1011.80 1012.95 1013.68
1012.61 1011.93 1011.25 1010.50 1009.85 1009.21 1008.62 1007.88 1007.28 1006.62 1006.09 1005.40 1005.65 1005.80 1005.69 1005.77 1006.02 1006.67 1007.05 1007.27 1007.05 1006.83 1006.01 1005.72 1005.63 1006.23 1006.28 1006.04 1006.59 1007.33 1007.99 1008.45 1008.68 1008.89 1008.50 1008.70 1008.59 1008.20 1008.47 1009.28 1010.13 1011.51 1012.47
1012.02 1011.31 1010.62 1009.93 1009.30 1008.68 1008.07 1007.50 1006.99 1006.37 1005.70 1005.19 1004.90 1004.66 1004.99 1005.14 1005.16 1005.07 1005.82 1005.99 1005.44 1005.33 1005.11 1004.87 1004.63 1004.71 1004.99 1005.00 1004.91 1005.32 1006.37 1007.36 1007.43 1007.82 1007.80 1007.97 1008.07 1007.77 1007.35 1007.71 1008.51 1010.08 1011.07
1011.43 1010.76 1010.14 1009.40 1008.64 1007.97 1007.36 1006.75 1006.17 1005.75 1005.25 1004.70 1004.20 1004.03 1003.98 1004.18 1004.29 1004.41 1004.48 1004.31 1004.21 1003.94 1003.77 1003.46 1003.25 1003.47 1003.57 1003.43 1003.55 1004.00 1004.54 1004.99 1005.77 1006.71 1006.82 1007.41 1007.82 1007.27 1006.94 1007.18 1007.22 1008.68 1009.69
1010.98 1010.20 1009.54 1008.81 1008.01 1007.35 1006.75 1006.18 1005.61 1005.15 1004.64 1004.07 1003.49 1003.37 1003.43 1003.59 1003.19 1003.16 1003.07 1002.99 1003.03 1003.05 1003.17 1003.28 1003.34 1002.90 1002.56 1002.54 1002.31 1002.48 1003.05 1003.73 1004.55 1005.08 1005.24 1005.58 1005.95 1006.14 1006.44 1006.62 1006.98 1007.61 1008.44
1010.78 1009.86 1009.06 1008.29 1007.54 1006.80 1006.16 1005.59 1005.04 1004.50 1003.99 1003.52 1003.04 1002.69 1002.70 1002.82 1002.75 1002.62 1002.32 1002.09 1001.93 1002.07 1002.34 1002.65 1002.92 1003.02 1002.79 1002.05 1001.94 1001.86 1002.15 1002.80 1003.42 1003.73 1004.50 1004.95 1004.86 1005.52 1005.70 1006.19 1006.36 1006.83 1007.39
1010.45 1009.60 1008.77 1007.96 1007.19 1006.45 1005.66 1005.02 1004.44 1003.88 1003.35 1002.88 1002.52 1002.23 1001.97 1001.67 1001.62 1001.49 1001.45 1001.30 1001.39 1001.59 1001.81 1002.03 1002.29 1002.51 1002.90 1002.57 1002.38 1002.27 1002.06 1002.49 1003.07 1003.18 1003.50 1003.94 1004.50 1005.07 1005.37 1005.49 1005.83 1005.96 1006.22
1010.17 1009.33 1008.53 1007.71 1006.86 1006.13 1005.33 1004.63 1003.95 1003.33 1002.81 1002.21 1001.71 1001.13 1000.89 1000.81 1000.71 1000.67 1000.68 1000.55 1000.53 1000.66 1000.99 1001.28 1001.62 1001.84 1002.07 1002.26 1002.36 1002.53 1002.84 1003.14 1003.66 1003.75 1003.72 1003.78 1004.37 1004.54 1004.82 1004.84 1005.21 1005.36 1005.67
1010.11 1009.28 1008.42 1007.54 1006.63 1005.75 1004.89 1004.10 1003.38 1002.74 1002.15 1001.60 1001.08 1000.60 1000.04 1000.03 1000.01 999.99 1000.03 1000.08 1000.13 1000.03 1000.08 1000.38 1000.71 1000.98 1001.30 1001.55 1001.69 1002.01 1002.49 1003.28 1003.98 1004.01 1004.43 1004.24 1004.25 1004.17 1004.43 1004.89 1004.70 1004.67 1005.17
1010.02 1009.23 1008.41 1007.53 1006.66 1005.75 1004.84 1003.90 1003.05 1002.27 1001.57 1001.00 1000.53 1000.08 999.75 999.30 999.05 999.04 999.11 999.27 999.25 999.46 999.60 999.71 999.90 1000.17 1000.54 1000.79 1001.12 1001.46 1002.17 1002.87 1003.46 1004.05 1004.16 1004.49 1004.53 1004.52 1004.54 1005.00 1004.92 1004.85 1005.24
Wind_Speed
10 9 6 9 11 11 10 11 11 10 13 16 11 14 15 15 14 14 13 14 15 12 12 12 12 10 7 6 5 4 3 3 6 7 7 8 6 8 8 8 7 7 6
10 10 11 10 9 9 10 11 11 12 9 13 17 12 17 16 15 16 17 15 17 16 15 12 13 10 8 6 7 5 4 3 5 6 8 5 4 7 7 7 5 5 5
10 11 10 10 7 8 11 12 11 11 10 9 10 14 14 16 16 17 17 18 15 17 16 16 14 13 12 8 7 7 6 5 5 6 7 4 3 5 4 4 5 5 3
11 11 11 9 10 11 8 6 10 11 11 9 9 10 14 14 10 17 19 17 16 14 16 15 14 4 5 7 7 8 7 7 6 5 7 7 6 5 4 4 4 4 5
13 12 13 11 11 11 11 10 10 11 10 9 10 5 9 13 10 11 15 12 14 15 12 9 9 12 16 18 11 16 6 6 7 6 8 8 8 7 7 6 5 5 5
13 14 13 13 14 13 12 11 11 10 11 11 10 11 9 8 9 14 10 12 11 14 13 9 11 20 22 24 17 26 13 8 8 8 8 6 7 8 8 8 6 5 4
16 15 14 14 15 14 14 14 13 11 11 11 12 13 12 13 5 9 11 10 13 11 9 12 6 9 17 17 17 13 14 16 4 7 5 5 2 5 5 7 9 6 4
17 18 17 16 16 15 14 13 12 11 12 12 13 12 13 13 12 10 9 10 13 14 14 15 16 14 20 20 16 18 15 14 10 8 6 5 5 3 5 7 6 7 7
19 18 18 18 17 17 16 13 11 12 13 14 14 14 14 13 11 12 10 12 13 15 9 12 13 18 21 21 18 18 17 14 12 3 7 8 8 5 3 7 6 6 4
19 20 19 19 18 18 18 14 12 13 14 15 16 17 15 15 9 15 12 11 12 10 12 11 12 14 12 19 20 18 16 17 19 11 6 4 5 4 3 7 7 7 5
18 18 18 17 19 19 17 14 14 15 16 15 17 16 16 15 13 15 15 13 13 10 8 8 6 13 13 20 22 17 18 16 17 13 11 10 9 10 8 8 7 6 7
17 19 18 18 16 16 18 16 17 14 13 15 16 15 14 14 14 9 14 18 12 13 11 8 6 10 12 14 20 16 4 13 12 12 11 11 12 11 10 10 8 6 4
17 18 16 15 15 15 16 15 12 14 13 16 15 15 13 14 13 14 14 12 13 9 9 4 7 11 11 13 14 10 4 7 12 13 12 11 9 11 10 10 9 9 7
17 18 16 15 17 14 12 11 10 11 11 12 13 14 12 12 6 7 9 8 9 8 4 4 8 6 6 5 6 7 11 5 9 12 11 10 6 8 9 10 11 8 4
15 15 15 13 14 14 13 11 11 13 12 11 10 13 10 8 7 9 11 10 9 8 5 2 3 6 5 4 4 3 4 5 9 8 7 9 5 7 7 9 11 10 6
14 12 11 11 11 11 12 12 14 17 18 18 19 15 15 14 8 8 12 12 8 14 4 4 6 6 6 7 8 5 3 5 7 8 5 8 6 9 8 9 10 10 10
14 14 11 13 11 12 11 11 12 12 17 19 19 19 21 19 13 5 5 8 6 5 9 8 6 6 8 8 7 7 7 6 6 6 7 8 7 10 10 11 10 10 10
14 20 11 11 11 10 11 11 10 10 12 10 12 17 18 20 16 11 12 8 10 9 11 11 11 9 8 8 12 12 9 8 9 9 7 7 8 11 10 12 13 11 9
12 10 11 10 9 11 10 10 10 11 12 11 10 10 12 15 15 16 11 12 14 13 12 14 13 12 11 12 12 11 13 11 8 10 10 9 10 11 11 11 12 13 13
10 16 14 10 9 9 9 9 9 10 11 11 10 10 9 7 10 12 12 13 14 15 14 15 13 13 12 13 11 11 10 13 14 13 12 14 14 12 12 12 11 13 13
9 9 12 9 8 8 8 9 9 9 10 11 11 10 9 9 9 10 10 12 13 13 13 12 11 14 12 13 13 13 13 10 12 11 11 11 12 11 11 10 11 11 14
9 9 9 9 8 8 8 8 8 9 9 10 11 11 9 8 10 10 10 10 10 11 11 11 11 9 13 13 14 13 13 13 13 13 12 12 10 11 12 12 12 12 13
9 10 10 9 8 9 8 7 7 7 9 9 9 10 10 10 11 12 12 9 10 10 9 10 10 11 12 12 10 10 13 12 11 11 12 12 11 11 11 11 12 12 11
10 10 10 9 9 9 8 8 8 8 8 8 8 9 9 10 10 11 11 10 10 11 11 11 11 14 12 14 10 9 11 11 11 14 17 11 13 12 11 12 12 15 11
10 10 10 10 10 10 10 9 9 8 7 7 7 8 7 9 9 10 9 10 10 10 12 11 11 13 17 20 18 18 12 10 14 10 8 12 10 11 15 12 12 12 12
10 11 10 10 10 10 10 10 10 10 9 7 7 7 7 7 8 9 9 11 10 11 12 9 12 19 21 18 19 17 10 12 14 11 13 9 9 9 9 15 20 11 7
Wind_Direction
3 351 360 351 351 356 355 351 344 331 322 288 211 198 211 204 201 201 213 198 194 209 205 193 198 235 214 201 207 223 221 243 276 97 100 120 92 111 112 118 127 119 125
351 341 340 346 339 340 339 343 347 352 341 338 298 250 212 216 203 203 210 207 193 201 207 210 199 209 222 229 202 207 215 185 277 152 133 152 116 129 135 127 128 137 140
333 332 338 334 335 333 335 328 327 338 339 334 323 316 273 214 211 210 209 220 210 200 202 204 204 201 198 213 220 187 211 217 196 269 138 158 109 143 128 127 137 137 139
322 319 319 322 317 314 311 319 323 321 318 325 336 321 317 302 277 211 209 217 219 214 202 203 204 68 351 270 215 222 193 188 222 230 159 156 165 158 163 154 157 169 164
306 307 308 301 301 302 305 308 301 310 311 311 314 306 324 308 297 320 325 232 210 233 233 129 116 113 93 6 336 327 262 201 207 208 239 164 174 160 199 179 192 162 172
301 301 298 299 298 293 291 290 291 295 297 306 311 295 300 289 315 318 323 312 259 240 237 145 147 142 143 155 268 297 321 275 251 220 230 235 130 177 180 168 160 164 203
297 292 290 291 292 292 292 290 289 283 292 284 284 288 288 278 210 267 284 282 275 269 194 182 202 189 173 181 175 258 295 287 307 279 277 307 150 185 165 188 177 189 223
291 290 287 284 285 286 287 289 298 296 286 276 280 270 271 285 175 202 223 250 264 256 236 215 197 181 187 197 195 193 236 267 246 254 217 241 213 175 189 188 193 109 82
288 288 288 289 280 274 276 282 286 289 290 291 279 267 275 260 208 205 199 251 253 252 246 242 205 209 200 200 199 198 198 226 235 147 82 87 106 108 205 154 164 165 162
300 306 310 307 301 313 317 297 282 281 280 278 274 277 258 269 231 198 217 258 256 254 241 225 229 218 197 185 200 187 196 206 217 178 175 147 173 168 275 229 177 207 162
306 298 295 295 301 298 295 290 298 287 274 269 277 277 279 270 262 189 208 243 256 241 249 233 226 211 205 184 206 202 206 194 209 185 196 203 198 205 207 216 230 225 231
314 307 300 301 303 299 296 290 280 274 282 284 274 266 266 246 261 221 201 223 246 252 259 254 255 190 195 196 192 210 348 204 208 194 190 196 202 200 201 181 199 240 310
299 295 293 293 295 281 285 281 270 275 280 279 273 275 253 241 232 192 182 210 241 247 254 266 160 170 164 170 166 126 127 243 202 203 191 205 196 193 183 147 134 81 71
290 290 291 288 292 285 282 265 268 270 258 264 262 266 277 269 289 226 189 190 217 218 154 181 133 171 142 84 134 163 193 231 244 203 196 187 187 141 159 158 142 133 113
290 287 287 283 282 281 277 271 266 268 265 253 267 273 267 312 323 353 354 216 202 175 176 140 185 172 182 144 131 183 204 208 254 235 213 192 157 159 158 145 158 158 147
296 292 288 286 282 282 281 276 255 248 256 264 270 270 282 294 351 359 1 2 98 144 163 186 209 175 199 190 177 178 208 214 234 234 237 215 176 165 161 176 164 175 172
298 295 290 284 282 281 274 272 274 263 237 244 251 251 260 262 274 277 272 323 304 169 217 202 196 219 207 182 186 189 192 195 230 238 218 247 220 177 175 174 172 178 180
296 294 287 285 280 278 278 278 274 271 275 261 241 240 243 255 252 212 193 199 253 243 249 231 222 209 222 216 179 190 193 196 211 231 224 223 215 231 189 183 186 186 182
302 297 291 287 284 280 274 269 269 270 271 267 277 231 230 242 248 259 195 240 241 232 228 231 239 221 218 217 213 201 185 196 195 213 220 230 234 241 215 203 188 190 169
295 291 287 287 284 281 277 273 267 263 264 263 259 250 257 221 229 231 234 240 238 237 237 246 239 219 236 233 221 204 209 191 181 204 215 207 213 225 228 219 220 180 180
306 299 291 284 282 282 280 275 272 264 262 263 260 256 243 252 248 230 227 220 223 230 229 233 242 246 241 233 234 228 205 204 200 214 211 220 202 212 218 219 213 225 173
309 307 305 299 296 292 290 281 270 266 263 263 267 260 231 236 237 244 237 233 231 224 221 219 227 230 246 247 230 233 219 203 216 200 200 222 208 216 215 215 217 215 174
308 313 316 314 308 303 298 290 288 274 263 257 255 255 253 240 234 236 229 232 219 222 223 225 227 220 227 248 251 240 228 221 232 240 201 204 212 210 215 212 222 216 205
321 319 317 316 312 308 304 303 301 288 278 279 274 254 240 240 238 235 239 242 237 223 218 217 218 222 220 227 226 209 219 227 223 233 249 216 220 223 228 219 212 215 214
330 331 330 326 322 319 316 312 302 294 294 286 278 289 251 231 234 238 231 228 234 233 221 214 214 217 220 226 223 215 202 181 220 240 249 256 256 226 210 239 232 220 204
333 333 330 327 326 324 320 317 316 311 304 294 290 279 272 272 232 230 226 229 226 223 227 227 221 219 219 222 217 209 191 183 199 214 236 238 240 223 220 222 236 234 195